Terminal Aerodrome Forecast
Issued by NWS

Home | Current Version | Previous Version | Text Only | Print | Product List | Glossary On
Versions: 1 2 3 4 5 6 7 8 9 10 11 12 13 14 15
000
FTUS41 KCAR 262320
TAFFVE
TAF
KFVE 262320Z 2700/2724 32009KT P6SM SCT090
     FM270300 32005KT P6SM SCT250
     FM271400 33009KT P6SM FEW250=

USA.gov is the U.S. government's official web portal to all federal, state and local government web resources and services.